Weather History for Iliamna, AK

Change the Weather History Date:

Wednesday, November 7, 2012

  Actual Average Record
Temperature  
Mean Temperature 11 °F -  
Max Temperature 19 °F 35 °F 50 °F (2002)
Min Temperature 3 °F 24 °F 0 °F (1955)
Degree Days  
Heating Degree Days 54    
Moisture  
Dew Point 5 °F    
Average Humidity 76    
Maximum Humidity 89    
Minimum Humidity 56    
Precipitation  
Precipitation 0.00 in - - ()
Sea Level Pressure  
Sea Level Pressure 30.36 in    
Wind  
Wind Speed 9 mph (North)    
Max Wind Speed 15 mph    
Max Gust Speed -    
Visibility 10 miles    
Events      
Averages and records for this station are not official NWS values.
T = Trace of Precipitation, MM = Missing Value Source: NWS Daily Summary

Daily Weather History Graph

Daily Weather History Graph

Search for Another Location

Airport:

Trip Planner

Search our weather history database for the weather conditions in past years. The results will help you decide how hot, cold, wet, or windy it might be!

Date:

Astronomy

Nov. 07, 2012 Rise Set
Actual Time 8:57 AM AKST 5:07 PM AKST
Civil Twilight 8:11 AM AKST 5:54 PM AKST
Nautical Twilight 7:21 AM AKST 6:44 PM AKST
Astronomical Twilight 6:33 AM AKST 7:32 PM AKST
Moon 12:23 AM AKST (11/7) 2:51 PM AKST (11/7)
Length of Visible Light 9h 42m
Length of Day
8h 10m
Last Quarter, 41% of the Moon is Illuminated
Nov 7
Last Quarter
Nov 13
New
Nov 20
First Quarter
Nov 28
Full
Dec 6
Last Quarter

Hourly Weather History & Observations

Time (AKST) Temp. Windchill Dew Point Humidity Pressure Visibility Wind Dir Wind Speed Gust Speed Precip Events Conditions
12:53 AM 6.1 °F -5.6 °F -2.0 °F 69% 30.34 in 10.0 mi NW 6.9 mph - N/A   Clear
1:53 AM 6.1 °F -6.8 °F -2.0 °F 69% 30.35 in 10.0 mi NW 8.1 mph - N/A   Clear
3:53 AM 3.9 °F -9.4 °F -2.9 °F 73% 30.37 in 10.0 mi NW 8.1 mph - N/A   Clear
4:53 AM 5.0 °F -9.1 °F -2.9 °F 70% 30.38 in 10.0 mi NW 9.2 mph - N/A   Clear
5:53 AM 3.9 °F -10.4 °F -2.0 °F 76% 30.39 in 10.0 mi NNW 9.2 mph - N/A   Clear
6:53 AM 5.0 °F -10.0 °F -0.9 °F 76% 30.37 in 10.0 mi North 10.4 mph - N/A   Clear
7:53 AM 6.1 °F -8.7 °F -0.0 °F 76% 30.38 in 10.0 mi North 10.4 mph - N/A   Clear
8:53 AM 5.0 °F -10.8 °F 1.9 °F 87% 30.38 in 10.0 mi North 11.5 mph - N/A   Clear
9:53 AM 7.0 °F -7.5 °F 1.9 °F 80% 30.40 in 10.0 mi North 10.4 mph - N/A   Clear
10:53 AM 10.0 °F -2.9 °F 3.9 °F 76% 30.41 in 10.0 mi North 9.2 mph - N/A   Clear
11:53 AM 10.9 °F -4.7 °F 5.0 °F 77% 30.41 in 10.0 mi North 13.8 mph - N/A   Clear
12:53 PM 12.0 °F -4.0 °F 6.1 °F 77% 30.39 in 10.0 mi North 15.0 mph - N/A   Mostly Cloudy
1:53 PM 14.0 °F 2.9 °F 7.0 °F 74% 30.40 in 10.0 mi North 8.1 mph - N/A   Mostly Cloudy
2:24 PM 15.8 °F 5.1 °F 6.8 °F 68% 30.37 in 10.0 mi North 8.1 mph - N/A   Scattered Clouds
2:53 PM 17.1 °F 3.6 °F 8.1 °F 68% 30.37 in 10.0 mi North 12.7 mph - N/A   Partly Cloudy
3:53 PM 15.1 °F 4.2 °F 8.1 °F 74% 30.38 in 10.0 mi NNE 8.1 mph - N/A   Scattered Clouds
4:53 PM 12.9 °F -0.9 °F 7.0 °F 77% 30.36 in 10.0 mi North 11.5 mph - N/A   Mostly Cloudy
5:53 PM 12.0 °F -2.7 °F 6.1 °F 77% 30.34 in 10.0 mi North 12.7 mph - N/A   Mostly Cloudy
6:53 PM 14.0 °F 1.2 °F 7.0 °F 74% 30.33 in 10.0 mi North 10.4 mph - N/A   Mostly Cloudy
7:53 PM 15.1 °F 1.8 °F 10.0 °F 80% 30.32 in 10.0 mi North 11.5 mph - N/A   Mostly Cloudy
8:53 PM 16.0 °F 3.6 °F 12.9 °F 88% 30.30 in 10.0 mi North 10.4 mph - N/A   Clear
9:53 PM 18.0 °F 8.7 °F 15.1 °F 88% 30.30 in 10.0 mi North 6.9 mph - N/A   Clear
10:53 PM 19.0 °F 9.0 °F 16.0 °F 88% 30.28 in 10.0 mi North 8.1 mph - N/A   Clear
11:53 PM 19.9 °F 11.1 °F 17.1 °F 89% 30.26 in 10.0 mi North 6.9 mph - N/A   Clear